Time,TemperatureF,DewpointF,PressureIn,WindDirection,WindDirectionDegrees,WindSpeedMPH,WindSpeedGustMPH,Humidity,HourlyPrecipIn,Conditions,Clouds,dailyrainin,SoftwareType,DateUTC
2013-01-10 00:01:00,43.7,32.6,30.02,SE,134,2.9,11.6,65,0.00,,CLR,0.00,VWS V14.01,2013-01-10 05:01:00,
2013-01-10 00:03:00,43.5,32.3,30.02,SSW,201,3.4,7.3,64,0.00,,CLR,0.00,VWS V14.01,2013-01-10 05:03:00,
2013-01-10 00:04:00,43.6,32.4,30.02,SW,231,9.8,9.8,64,0.00,,CLR,0.00,VWS V14.01,2013-01-10 05:04:00,
2013-01-10 00:08:00,43.3,32.0,30.02,West,260,5.1,5.1,64,0.00,,CLR,0.00,VWS V14.01,2013-01-10 05:08:00,
2013-01-10 00:13:00,43.1,31.7,30.02,SW,222,7.2,9.3,64,0.00,,CLR,0.00,VWS V14.01,2013-01-10 05:13:00,
2013-01-10 00:18:00,43.0,31.5,30.02,SW,235,5.7,8.3,64,0.00,,CLR,0.00,VWS V14.01,2013-01-10 05:18:00,
2013-01-10 00:24:00,43.0,31.5,30.02,WSW,253,8.9,12.0,64,0.00,,CLR,0.00,VWS V14.01,2013-01-10 05:24:00,
2013-01-10 00:30:00,42.7,31.3,30.02,West,270,7.5,10.9,64,0.00,,CLR,0.00,VWS V14.01,2013-01-10 05:30:00,
2013-01-10 00:35:00,42.7,31.3,30.02,WSW,245,6.2,9.6,64,0.00,,CLR,0.00,VWS V14.01,2013-01-10 05:35:00,
2013-01-10 00:41:00,42.6,31.1,30.02,West,280,7.4,10.1,64,0.00,,CLR,0.00,VWS V14.01,2013-01-10 05:41:00,
2013-01-10 00:47:00,42.3,30.9,30.02,WSW,250,4.2,7.8,64,0.00,,CLR,0.00,VWS V14.01,2013-01-10 05:47:00,
2013-01-10 00:52:00,42.2,30.8,30.02,NW,308,6.3,10.1,64,0.00,,CLR,0.00,VWS V14.01,2013-01-10 05:52:00,
2013-01-10 00:58:00,42.2,30.4,30.02,WNW,297,7.8,10.1,63,0.00,,CLR,0.00,VWS V14.01,2013-01-10 05:58:00,
2013-01-10 01:04:00,42.1,30.0,30.02,NW,323,5.5,10.1,62,0.00,,CLR,0.00,VWS V14.01,2013-01-10 06:04:00,
2013-01-10 01:09:00,42.0,29.9,30.03,WSW,242,5.1,7.7,62,0.00,,CLR,0.00,VWS V14.01,2013-01-10 06:09:00,
2013-01-10 01:14:00,41.8,29.4,30.03,NW,321,6.2,7.8,61,0.00,,CLR,0.00,VWS V14.01,2013-01-10 06:14:00,
2013-01-10 01:19:00,41.9,29.2,30.02,WNW,292,3.8,9.3,60,0.00,,CLR,0.00,VWS V14.01,2013-01-10 06:19:00,
2013-01-10 01:25:00,42.1,29.1,30.03,West,264,5.6,7.0,60,0.00,,CLR,0.00,VWS V14.01,2013-01-10 06:25:00,
2013-01-10 01:31:00,41.8,28.7,30.03,SW,236,7.7,10.0,60,0.00,,CLR,0.00,VWS V14.01,2013-01-10 06:31:00,
2013-01-10 01:36:00,41.8,28.8,30.03,WNW,294,5.4,6.5,60,0.00,,CLR,0.00,VWS V14.01,2013-01-10 06:36:00,
2013-01-10 01:41:00,41.7,28.7,30.03,WSW,242,6.7,10.4,60,0.00,,CLR,0.00,VWS V14.01,2013-01-10 06:41:00,
2013-01-10 01:46:00,41.7,28.8,30.03,WSW,240,10.1,10.1,60,0.00,,CLR,0.00,VWS V14.01,2013-01-10 06:46:00,
2013-01-10 01:52:00,41.7,28.9,30.03,WSW,239,2.9,7.0,60,0.00,,CLR,0.00,VWS V14.01,2013-01-10 06:52:00,
2013-01-10 01:58:00,41.6,28.9,30.03,West,262,4.2,4.2,60,0.00,,CLR,0.00,VWS V14.01,2013-01-10 06:58:00,
2013-01-10 02:03:00,41.3,28.8,30.03,West,262,4.3,4.9,61,0.00,,CLR,0.00,VWS V14.01,2013-01-10 07:03:00,
2013-01-10 02:08:00,41.1,28.8,30.03,West,264,5.7,5.8,61,0.00,,CLR,0.00,VWS V14.01,2013-01-10 07:08:00,
2013-01-10 02:13:00,41.2,28.9,30.03,SW,236,3.7,7.8,61,0.00,,CLR,0.00,VWS V14.01,2013-01-10 07:13:00,
2013-01-10 02:18:00,41.1,28.8,30.04,WSW,252,4.4,11.3,61,0.00,,CLR,0.00,VWS V14.01,2013-01-10 07:18:00,
2013-01-10 02:23:00,41.1,28.6,30.04,WNW,301,4.6,4.9,61,0.00,,CLR,0.00,VWS V14.01,2013-01-10 07:23:00,
2013-01-10 02:28:00,41.2,28.6,30.04,NW,314,6.9,8.5,60,0.00,,CLR,0.00,VWS V14.01,2013-01-10 07:28:00,
2013-01-10 02:33:00,41.3,28.5,30.05,WNW,295,6.3,9.3,60,0.00,,CLR,0.00,VWS V14.01,2013-01-10 07:33:00,
2013-01-10 02:38:00,41.4,28.2,30.04,North,357,2.6,9.3,59,0.00,,CLR,0.00,VWS V14.01,2013-01-10 07:38:00,
2013-01-10 02:43:00,41.6,27.9,30.05,North,1,7.8,14.7,58,0.00,,CLR,0.00,VWS V14.01,2013-01-10 07:43:00,
2013-01-10 02:49:00,41.6,27.5,30.06,SW,229,3.1,9.6,57,0.00,,CLR,0.00,VWS V14.01,2013-01-10 07:49:00,
2013-01-10 02:54:00,41.5,27.1,30.06,NW,321,7.0,8.5,56,0.00,,CLR,0.00,VWS V14.01,2013-01-10 07:54:00,
2013-01-10 02:59:00,41.7,27.0,30.06,NW,326,3.6,8.9,56,0.00,,CLR,0.00,VWS V14.01,2013-01-10 07:59:00,
2013-01-10 03:05:00,41.7,26.6,30.06,WSW,257,3.4,13.1,55,0.00,,CLR,0.00,VWS V14.01,2013-01-10 08:05:00,
2013-01-10 03:11:00,41.9,26.4,30.07,NNW,343,7.1,14.7,54,0.00,,CLR,0.00,VWS V14.01,2013-01-10 08:11:00,
2013-01-10 03:16:00,42.0,26.3,30.07,NW,322,1.9,6.1,53,0.00,,CLR,0.00,VWS V14.01,2013-01-10 08:16:00,
2013-01-10 03:21:00,41.9,26.1,30.07,NW,323,4.9,10.1,53,0.00,,CLR,0.00,VWS V14.01,2013-01-10 08:21:00,
2013-01-10 03:26:00,41.6,26.2,30.07,WSW,246,3.7,6.7,54,0.00,,CLR,0.00,VWS V14.01,2013-01-10 08:26:00,
2013-01-10 03:32:00,41.3,26.3,30.08,NNE,22,5.8,11.3,55,0.00,,CLR,0.00,VWS V14.01,2013-01-10 08:32:00,
2013-01-10 03:38:00,41.2,26.3,30.08,North,357,2.7,8.8,55,0.00,,CLR,0.00,VWS V14.01,2013-01-10 08:38:00,
2013-01-10 03:43:00,41.3,26.5,30.09,South,184,5.2,8.5,55,0.00,,CLR,0.00,VWS V14.01,2013-01-10 08:43:00,
2013-01-10 03:48:00,41.1,26.5,30.09,North,349,2.8,7.8,56,0.00,,CLR,0.00,VWS V14.01,2013-01-10 08:48:00,
2013-01-10 03:53:00,40.9,26.6,30.09,NNE,31,4.5,9.2,56,0.00,,CLR,0.00,VWS V14.01,2013-01-10 08:53:00,
2013-01-10 03:59:00,40.8,26.6,30.10,WSW,257,4.3,4.9,57,0.00,,CLR,0.00,VWS V14.01,2013-01-10 08:59:00,
2013-01-10 04:04:00,40.7,26.6,30.10,WNW,290,3.2,6.4,57,0.00,,CLR,0.00,VWS V14.01,2013-01-10 09:04:00,
2013-01-10 04:09:00,40.7,26.6,30.10,WSW,238,10.3,10.3,57,0.00,,CLR,0.00,VWS V14.01,2013-01-10 09:09:00,
2013-01-10 04:14:00,40.6,26.7,30.11,ENE,68,6.1,8.5,57,0.00,,CLR,0.00,VWS V14.01,2013-01-10 09:14:00,
2013-01-10 04:20:00,40.4,26.6,30.11,North,3,7.4,9.6,58,0.00,,CLR,0.00,VWS V14.01,2013-01-10 09:20:00,
2013-01-10 04:25:00,40.4,26.5,30.11,NW,321,9.3,9.3,57,0.00,,CLR,0.00,VWS V14.01,2013-01-10 09:25:00,
2013-01-10 04:30:00,40.6,26.6,30.12,North,0,4.0,11.3,57,0.00,,CLR,0.00,VWS V14.01,2013-01-10 09:30:00,
2013-01-10 04:35:00,40.5,26.3,30.12,North,359,6.7,8.9,56,0.00,,CLR,0.00,VWS V14.01,2013-01-10 09:35:00,
2013-01-10 04:41:00,40.5,26.2,30.12,North,6,5.5,9.7,56,0.00,,CLR,0.00,VWS V14.01,2013-01-10 09:41:00,
2013-01-10 04:47:00,40.5,26.0,30.12,WNW,300,3.7,8.5,56,0.00,,CLR,0.00,VWS V14.01,2013-01-10 09:47:00,
2013-01-10 04:52:00,40.5,25.9,30.12,NE,34,7.0,9.8,56,0.00,,CLR,0.00,VWS V14.01,2013-01-10 09:52:00,
2013-01-10 04:57:00,40.7,25.9,30.12,NW,312,4.5,6.2,55,0.00,,CLR,0.00,VWS V14.01,2013-01-10 09:57:00,
2013-01-10 05:02:00,40.4,25.6,30.13,North,4,5.8,8.6,55,0.00,,CLR,0.00,VWS V14.01,2013-01-10 10:02:00,
2013-01-10 05:07:00,40.6,25.4,30.13,NW,314,9.1,15.0,54,0.00,,CLR,0.00,VWS V14.01,2013-01-10 10:07:00,
2013-01-10 05:12:00,40.8,25.1,30.13,NNW,343,3.9,11.2,53,0.00,,CLR,0.00,VWS V14.01,2013-01-10 10:12:00,
2013-01-10 05:17:00,40.7,24.8,30.13,WNW,290,5.4,12.8,53,0.00,,CLR,0.00,VWS V14.01,2013-01-10 10:17:00,
2013-01-10 05:22:00,40.8,24.5,30.14,NE,46,8.5,16.7,52,0.00,,CLR,0.00,VWS V14.01,2013-01-10 10:22:00,
2013-01-10 05:27:00,40.9,24.3,30.15,NNE,17,10.6,10.6,51,0.00,,CLR,0.00,VWS V14.01,2013-01-10 10:27:00,
2013-01-10 05:32:00,41.1,24.0,30.14,ENE,70,7.8,7.8,50,0.00,,CLR,0.00,VWS V14.01,2013-01-10 10:32:00,
2013-01-10 05:37:00,40.9,23.9,30.15,NNW,339,4.6,8.1,50,0.00,,CLR,0.00,VWS V14.01,2013-01-10 10:37:00,
2013-01-10 05:43:00,40.7,24.0,30.16,North,1,5.0,6.8,51,0.00,,CLR,0.00,VWS V14.01,2013-01-10 10:43:00,
2013-01-10 05:48:00,40.5,24.0,30.17,NNW,346,3.7,6.2,51,0.00,,CLR,0.00,VWS V14.01,2013-01-10 10:48:00,
2013-01-10 05:53:00,40.3,24.0,30.17,South,191,1.5,1.5,52,0.00,,CLR,0.00,VWS V14.01,2013-01-10 10:53:00,
2013-01-10 05:58:00,40.1,24.0,30.17,NW,322,2.7,6.4,52,0.00,,CLR,0.00,VWS V14.01,2013-01-10 10:58:00,
2013-01-10 06:03:00,39.9,23.7,30.18,ESE,112,2.4,7.1,52,0.00,,CLR,0.00,VWS V14.01,2013-01-10 11:03:00,
2013-01-10 06:08:00,40.0,23.8,30.18,WNW,287,1.5,1.5,52,0.00,,CLR,0.00,VWS V14.01,2013-01-10 11:08:00,
2013-01-10 06:13:00,39.7,23.8,30.18,East,94,1.5,1.5,52,0.00,,CLR,0.00,VWS V14.01,2013-01-10 11:13:00,
2013-01-10 06:18:00,39.5,23.7,30.18,North,0,6.5,9.4,53,0.00,,CLR,0.00,VWS V14.01,2013-01-10 11:18:00,
2013-01-10 06:23:00,39.6,23.6,30.18,NNE,25,2.9,7.7,52,0.00,,CLR,0.00,VWS V14.01,2013-01-10 11:23:00,
2013-01-10 06:28:00,39.5,23.5,30.18,NW,322,5.6,8.3,52,0.00,,CLR,0.00,VWS V14.01,2013-01-10 11:28:00,
2013-01-10 06:33:00,39.5,23.5,30.18,SSW,201,1.5,3.1,52,0.00,,CLR,0.00,VWS V14.01,2013-01-10 11:33:00,
2013-01-10 06:38:00,39.5,23.4,30.19,NE,37,3.5,9.3,52,0.00,,CLR,0.00,VWS V14.01,2013-01-10 11:38:00,
2013-01-10 06:43:00,39.4,23.5,30.19,NNE,31,3.4,3.5,53,0.00,,CLR,0.00,VWS V14.01,2013-01-10 11:43:00,
2013-01-10 06:48:00,39.2,23.4,30.19,West,264,4.0,6.9,53,0.00,,CLR,0.00,VWS V14.01,2013-01-10 11:48:00,
2013-01-10 06:53:00,39.1,23.3,30.20,WSW,245,3.2,8.8,53,0.00,,CLR,0.00,VWS V14.01,2013-01-10 11:53:00,
2013-01-10 06:58:00,39.0,23.2,30.20,North,356,1.5,1.5,53,0.00,,CLR,0.00,VWS V14.01,2013-01-10 11:58:00,
2013-01-10 07:03:00,38.9,23.1,30.20,NNE,20,4.5,7.6,53,0.00,,SCT250,0.00,VWS V14.01,2013-01-10 12:03:00,
2013-01-10 07:08:00,39.0,22.9,30.21,SW,236,2.2,6.4,52,0.00,,SCT250,0.00,VWS V14.01,2013-01-10 12:08:00,
2013-01-10 07:13:00,39.0,22.8,30.21,NNE,25,4.2,9.1,52,0.00,,SCT250,0.00,VWS V14.01,2013-01-10 12:13:00,
2013-01-10 07:18:00,39.1,22.8,30.21,NNE,13,1.9,7.2,52,0.00,,SCT250,0.00,VWS V14.01,2013-01-10 12:18:00,
2013-01-10 07:23:00,39.1,22.8,30.21,WSW,252,4.9,5.3,52,0.00,,SCT250,0.00,VWS V14.01,2013-01-10 12:23:00,
2013-01-10 07:28:00,39.0,22.6,30.22,North,3,2.3,4.1,52,0.00,,SCT250,0.00,VWS V14.01,2013-01-10 12:28:00,
2013-01-10 07:33:00,39.0,22.6,30.22,North,0,3.2,9.1,51,0.00,,SCT250,0.00,VWS V14.01,2013-01-10 12:33:00,
2013-01-10 07:38:00,39.2,22.6,30.23,NNE,32,2.7,6.9,51,0.00,,SCT250,0.00,VWS V14.01,2013-01-10 12:38:00,
2013-01-10 07:43:00,39.1,22.6,30.23,NNE,30,5.1,6.4,51,0.00,,SCT250,0.00,VWS V14.01,2013-01-10 12:43:00,
2013-01-10 07:48:00,39.0,22.6,30.23,WNW,292,4.7,10.3,51,0.00,,SCT250,0.00,VWS V14.01,2013-01-10 12:48:00,
2013-01-10 07:53:00,39.0,22.5,30.23,WSW,243,2.6,5.5,51,0.00,,SCT250,0.00,VWS V14.01,2013-01-10 12:53:00,
2013-01-10 07:58:00,39.0,22.4,30.23,NE,44,3.9,8.8,51,0.00,,SCT250,0.00,VWS V14.01,2013-01-10 12:58:00,
2013-01-10 08:03:00,39.3,22.6,30.24,NW,321,4.2,12.7,51,0.00,,SCT250,0.00,VWS V14.01,2013-01-10 13:03:00,
2013-01-10 08:08:00,39.3,22.6,30.24,NNE,24,4.0,5.8,51,0.00,,SCT250,0.00,VWS V14.01,2013-01-10 13:08:00,
2013-01-10 08:13:00,39.3,22.6,30.25,ENE,62,2.7,5.9,51,0.00,,SCT250,0.00,VWS V14.01,2013-01-10 13:13:00,
2013-01-10 08:18:00,39.4,22.6,30.25,ENE,60,1.5,2.9,51,0.00,,SCT250,0.00,VWS V14.01,2013-01-10 13:18:00,
2013-01-10 08:23:00,39.5,22.6,30.26,North,357,4.2,8.0,50,0.00,,SCT250,0.00,VWS V14.01,2013-01-10 13:23:00,
2013-01-10 08:28:00,39.6,22.5,30.26,NNE,30,1.5,4.4,50,0.00,,SCT250,0.00,VWS V14.01,2013-01-10 13:28:00,
2013-01-10 08:33:00,39.7,22.5,30.26,North,4,2.8,5.0,50,0.00,,SCT250,0.00,VWS V14.01,2013-01-10 13:33:00,
2013-01-10 08:38:00,40.0,22.4,30.26,West,260,4.4,8.8,49,0.00,,SCT250,0.00,VWS V14.01,2013-01-10 13:38:00,
2013-01-10 08:43:00,40.1,22.2,30.26,SE,145,3.1,5.2,48,0.00,,SCT250,0.00,VWS V14.01,2013-01-10 13:43:00,
2013-01-10 08:48:00,40.4,22.3,30.27,West,266,1.5,6.8,48,0.00,,SCT250,0.00,VWS V14.01,2013-01-10 13:48:00,
2013-01-10 08:53:00,40.6,22.2,30.27,ENE,75,4.7,6.2,48,0.00,,SCT250,0.00,VWS V14.01,2013-01-10 13:53:00,
2013-01-10 08:58:00,40.9,22.2,30.28,NNW,335,2.7,6.8,47,0.00,,SCT250,0.00,VWS V14.01,2013-01-10 13:58:00,
2013-01-10 09:03:00,41.1,22.1,30.28,NNW,328,5.1,6.3,46,0.00,,SCT250,0.00,VWS V14.01,2013-01-10 14:03:00,
2013-01-10 09:08:00,41.2,21.8,30.28,WNW,285,4.0,7.2,46,0.00,,SCT250,0.00,VWS V14.01,2013-01-10 14:08:00,
2013-01-10 09:13:00,41.5,22.0,30.28,WSW,253,4.0,6.6,45,0.00,,SCT250,0.00,VWS V14.01,2013-01-10 14:13:00,
2013-01-10 09:18:00,41.7,21.9,30.29,NNE,15,3.0,5.5,45,0.00,,SCT250,0.00,VWS V14.01,2013-01-10 14:18:00,
2013-01-10 09:23:00,41.8,21.5,30.28,NNW,338,4.4,10.4,44,0.00,,SCT250,0.00,VWS V14.01,2013-01-10 14:23:00,
2013-01-10 09:28:00,41.9,21.3,30.28,North,11,4.2,9.6,44,0.00,,SCT250,0.00,VWS V14.01,2013-01-10 14:28:00,
2013-01-10 09:33:00,42.0,21.1,30.29,NNE,27,7.1,8.9,43,0.00,,SCT250,0.00,VWS V14.01,2013-01-10 14:33:00,
2013-01-10 09:38:00,42.1,21.4,30.28,North,354,5.2,5.8,43,0.00,,SCT250,0.00,VWS V14.01,2013-01-10 14:38:00,
2013-01-10 09:43:00,42.3,21.4,30.28,NNE,28,11.1,11.1,43,0.00,,SCT250,0.00,VWS V14.01,2013-01-10 14:43:00,
2013-01-10 09:48:00,42.4,21.3,30.28,ENE,58,4.0,9.6,43,0.00,,SCT250,0.00,VWS V14.01,2013-01-10 14:48:00,
2013-01-10 09:53:00,42.4,20.8,30.28,NNW,335,6.6,7.5,42,0.00,,SCT250,0.00,VWS V14.01,2013-01-10 14:53:00,
2013-01-10 09:58:00,42.6,20.9,30.28,WNW,298,4.5,18.7,42,0.00,,SCT250,0.00,VWS V14.01,2013-01-10 14:58:00,
2013-01-10 10:03:00,42.7,20.0,30.29,North,6,7.7,13.1,40,0.00,,SCT250,0.00,VWS V14.01,2013-01-10 15:03:00,
2013-01-10 10:08:00,42.9,20.4,30.29,ENE,69,6.2,12.6,40,0.00,,SCT250,0.00,VWS V14.01,2013-01-10 15:08:00,
2013-01-10 10:13:00,43.2,20.8,30.29,NNE,24,7.1,7.1,40,0.00,,SCT250,0.00,VWS V14.01,2013-01-10 15:13:00,
2013-01-10 10:18:00,43.3,20.6,30.29,NE,37,1.5,5.2,40,0.00,,SCT250,0.00,VWS V14.01,2013-01-10 15:18:00,
2013-01-10 10:23:00,43.5,20.9,30.29,North,357,5.9,7.5,40,0.00,,SCT250,0.00,VWS V14.01,2013-01-10 15:23:00,
2013-01-10 10:28:00,43.6,20.7,30.29,North,357,7.2,9.6,40,0.00,,SCT250,0.00,VWS V14.01,2013-01-10 15:28:00,
2013-01-10 10:33:00,43.7,20.6,30.29,North,1,8.3,11.9,39,0.00,,SCT250,0.00,VWS V14.01,2013-01-10 15:33:00,
2013-01-10 10:38:00,43.7,20.4,30.29,NNW,347,9.6,11.7,39,0.00,,SCT250,0.00,VWS V14.01,2013-01-10 15:38:00,
2013-01-10 10:43:00,43.7,19.8,30.29,NNE,28,4.7,14.8,38,0.00,,SCT250,0.00,VWS V14.01,2013-01-10 15:43:00,
2013-01-10 10:48:00,43.8,20.0,30.29,North,357,7.6,9.1,38,0.00,,SCT250,0.00,VWS V14.01,2013-01-10 15:48:00,
2013-01-10 10:53:00,44.0,20.1,30.29,NNE,17,3.9,8.1,38,0.00,,SCT250,0.00,VWS V14.01,2013-01-10 15:53:00,
2013-01-10 10:58:00,44.1,19.5,30.29,NNW,335,5.3,13.9,37,0.00,,SCT250,0.00,VWS V14.01,2013-01-10 15:58:00,
2013-01-10 11:03:00,44.1,19.3,30.29,NNE,24,6.1,16.8,37,0.00,,SCT250,0.00,VWS V14.01,2013-01-10 16:03:00,
2013-01-10 11:08:00,44.1,19.5,30.28,NE,35,5.7,7.4,37,0.00,,SCT250,0.00,VWS V14.01,2013-01-10 16:08:00,
2013-01-10 11:13:00,44.3,19.9,30.28,NE,55,5.0,8.0,37,0.00,,SCT250,0.00,VWS V14.01,2013-01-10 16:13:00,
2013-01-10 11:18:00,44.5,20.4,30.28,North,3,7.0,10.0,38,0.00,,SCT250,0.00,VWS V14.01,2013-01-10 16:18:00,
2013-01-10 11:23:00,44.6,19.7,30.27,NNW,347,9.8,10.0,37,0.00,,SCT250,0.00,VWS V14.01,2013-01-10 16:23:00,
2013-01-10 11:28:00,44.4,19.2,30.26,NNE,15,8.8,10.5,36,0.00,,SCT250,0.00,VWS V14.01,2013-01-10 16:28:00,
2013-01-10 11:33:00,44.6,19.6,30.27,NNE,20,5.2,8.8,36,0.00,,SCT250,0.00,VWS V14.01,2013-01-10 16:33:00,
2013-01-10 11:38:00,44.8,19.8,30.27,North,353,9.3,14.6,36,0.00,,SCT250,0.00,VWS V14.01,2013-01-10 16:38:00,
2013-01-10 11:43:00,45.0,19.7,30.27,East,80,5.7,8.1,36,0.00,,SCT250,0.00,VWS V14.01,2013-01-10 16:43:00,
2013-01-10 11:48:00,45.1,19.3,30.27,North,357,5.9,11.3,35,0.00,,SCT250,0.00,VWS V14.01,2013-01-10 16:48:00,
2013-01-10 11:53:00,45.0,19.2,30.27,North,6,5.8,12.2,35,0.00,,SCT250,0.00,VWS V14.01,2013-01-10 16:53:00,
2013-01-10 11:58:00,45.1,19.0,30.28,NNE,32,9.0,11.3,35,0.00,,SCT250,0.00,VWS V14.01,2013-01-10 16:58:00,
2013-01-10 12:03:00,45.3,19.1,30.28,NNW,347,3.9,6.7,35,0.00,,SCT250,0.00,VWS V14.01,2013-01-10 17:03:00,
2013-01-10 12:08:00,45.4,19.2,30.28,NNE,25,5.0,7.3,35,0.00,,SCT250,0.00,VWS V14.01,2013-01-10 17:08:00,
2013-01-10 12:13:00,45.6,19.1,30.28,NNE,17,3.6,5.9,34,0.00,,SCT250,0.00,VWS V14.01,2013-01-10 17:13:00,
2013-01-10 12:18:00,45.8,19.2,30.28,NNE,17,6.7,6.7,34,0.00,,SCT250,0.00,VWS V14.01,2013-01-10 17:18:00,
2013-01-10 12:23:00,46.1,19.7,30.27,NE,37,7.5,8.6,35,0.00,,SCT250,0.00,VWS V14.01,2013-01-10 17:23:00,
2013-01-10 12:28:00,46.4,19.4,30.27,NE,35,5.2,8.0,34,0.00,,SCT250,0.00,VWS V14.01,2013-01-10 17:28:00,
2013-01-10 12:33:00,46.3,18.3,30.27,NNE,15,5.4,11.3,32,0.00,,SCT250,0.00,VWS V14.01,2013-01-10 17:33:00,
2013-01-10 12:38:00,46.1,18.4,30.27,NE,49,6.7,10.8,33,0.00,,SCT250,0.00,VWS V14.01,2013-01-10 17:38:00,
2013-01-10 12:43:00,45.9,18.6,30.27,North,3,7.6,10.9,33,0.00,,SCT250,0.00,VWS V14.01,2013-01-10 17:43:00,
2013-01-10 12:48:00,46.0,18.7,30.27,North,10,6.3,10.8,33,0.00,,SCT250,0.00,VWS V14.01,2013-01-10 17:48:00,
2013-01-10 12:53:00,46.1,18.6,30.28,NE,34,8.9,12.1,33,0.00,,SCT250,0.00,VWS V14.01,2013-01-10 17:53:00,
2013-01-10 12:58:00,46.0,18.2,30.28,North,8,8.3,11.3,32,0.00,,SCT250,0.00,VWS V14.01,2013-01-10 17:58:00,
2013-01-10 13:03:00,45.9,18.3,30.28,NE,49,6.8,10.2,33,0.00,,SCT250,0.00,VWS V14.01,2013-01-10 18:03:00,
2013-01-10 13:08:00,46.0,19.0,30.28,North,3,5.5,12.0,34,0.00,,SCT250,0.00,VWS V14.01,2013-01-10 18:08:00,
2013-01-10 13:13:00,46.1,18.6,30.28,North,4,8.2,10.1,33,0.00,,SCT250,0.00,VWS V14.01,2013-01-10 18:13:00,
2013-01-10 13:18:00,46.1,18.4,30.28,North,354,8.5,11.1,33,0.00,,SCT250,0.00,VWS V14.01,2013-01-10 18:18:00,
2013-01-10 13:23:00,46.1,18.7,30.29,NNE,25,4.7,6.2,33,0.00,,SCT250,0.00,VWS V14.01,2013-01-10 18:23:00,
2013-01-10 13:28:00,46.3,19.0,30.29,North,1,6.3,8.5,33,0.00,,SCT250,0.00,VWS V14.01,2013-01-10 18:28:00,
2013-01-10 13:33:00,46.4,18.8,30.29,North,4,7.0,8.2,33,0.00,,SCT250,0.00,VWS V14.01,2013-01-10 18:33:00,
2013-01-10 13:38:00,46.5,18.8,30.29,North,10,4.4,8.9,33,0.00,,SCT250,0.00,VWS V14.01,2013-01-10 18:38:00,
2013-01-10 13:44:00,46.5,18.5,30.29,NNE,15,5.8,13.1,32,0.00,,SCT250,0.00,VWS V14.01,2013-01-10 18:44:00,
2013-01-10 13:49:00,46.6,18.8,30.29,NNE,21,3.4,8.6,33,0.00,,SCT250,0.00,VWS V14.01,2013-01-10 18:49:00,
2013-01-10 13:54:00,46.6,18.9,30.29,North,8,5.2,9.4,33,0.00,,SCT250,0.00,VWS V14.01,2013-01-10 18:54:00,
2013-01-10 13:59:00,46.5,18.5,30.30,NNE,14,4.6,9.8,32,0.00,,SCT250,0.00,VWS V14.01,2013-01-10 18:59:00,
2013-01-10 14:04:00,46.6,18.8,30.30,SSE,148,3.0,11.8,33,0.00,,SCT250,0.00,VWS V14.01,2013-01-10 19:04:00,
2013-01-10 14:09:00,46.6,18.7,30.31,North,10,4.9,7.3,32,0.00,,SCT250,0.00,VWS V14.01,2013-01-10 19:09:00,
2013-01-10 14:14:00,46.5,18.5,30.31,NNE,22,7.9,9.1,32,0.00,,SCT250,0.00,VWS V14.01,2013-01-10 19:14:00,
2013-01-10 14:19:00,46.5,18.5,30.31,NNW,345,4.1,5.4,32,0.00,,SCT250,0.00,VWS V14.01,2013-01-10 19:19:00,
2013-01-10 14:24:00,46.6,18.7,30.31,NNW,336,5.0,5.4,32,0.00,,SCT250,0.00,VWS V14.01,2013-01-10 19:24:00,
2013-01-10 14:29:00,46.7,19.3,30.32,North,11,3.0,5.3,33,0.00,,SCT250,0.00,VWS V14.01,2013-01-10 19:29:00,
2013-01-10 14:34:00,46.8,19.0,30.32,NW,321,4.4,4.4,33,0.00,,SCT250,0.00,VWS V14.01,2013-01-10 19:34:00,
2013-01-10 14:39:00,46.7,18.9,30.32,NE,48,6.1,7.1,33,0.00,,SCT250,0.00,VWS V14.01,2013-01-10 19:39:00,
2013-01-10 14:44:00,46.6,18.8,30.33,NE,49,6.1,7.3,33,0.00,,SCT250,0.00,VWS V14.01,2013-01-10 19:44:00,
2013-01-10 14:50:00,46.4,18.4,30.33,North,7,4.1,9.3,32,0.00,,SCT250,0.00,VWS V14.01,2013-01-10 19:50:00,
2013-01-10 14:55:00,46.3,18.5,30.33,NNE,24,5.1,7.5,33,0.00,,SCT250,0.00,VWS V14.01,2013-01-10 19:55:00,
2013-01-10 15:00:00,46.0,17.9,30.33,NNW,339,7.5,8.3,32,0.00,,SCT250,0.00,VWS V14.01,2013-01-10 20:00:00,
2013-01-10 15:05:00,45.9,18.1,30.32,North,356,9.6,9.6,33,0.00,,SCT250,0.00,VWS V14.01,2013-01-10 20:05:00,
2013-01-10 15:11:00,45.8,18.1,30.32,NE,37,7.8,8.0,33,0.00,,SCT250,0.00,VWS V14.01,2013-01-10 20:11:00,
2013-01-10 15:16:00,45.7,18.3,30.33,NE,56,4.3,6.2,33,0.00,,SCT250,0.00,VWS V14.01,2013-01-10 20:16:00,
2013-01-10 15:21:00,45.7,18.0,30.33,North,354,2.7,6.2,33,0.00,,SCT250,0.00,VWS V14.01,2013-01-10 20:21:00,
2013-01-10 15:26:00,45.6,18.0,30.34,North,11,2.5,4.2,33,0.00,,SCT250,0.00,VWS V14.01,2013-01-10 20:26:00,
2013-01-10 15:31:00,45.5,18.0,30.34,NNE,15,3.8,5.2,33,0.00,,SCT250,0.00,VWS V14.01,2013-01-10 20:31:00,
2013-01-10 15:36:00,45.2,18.0,30.34,NW,323,7.2,8.5,33,0.00,,SCT250,0.00,VWS V14.01,2013-01-10 20:36:00,
2013-01-10 15:41:00,45.1,18.1,30.34,North,1,3.9,8.7,34,0.00,,SCT250,0.00,VWS V14.01,2013-01-10 20:41:00,
2013-01-10 15:47:00,44.7,18.1,30.34,North,356,5.9,7.8,34,0.00,,SCT250,0.00,VWS V14.01,2013-01-10 20:47:00,
2013-01-10 15:52:00,44.4,18.1,30.34,NNW,339,3.9,6.2,34,0.00,,SCT250,0.00,VWS V14.01,2013-01-10 20:52:00,
2013-01-10 15:57:00,44.3,18.1,30.34,NNE,18,4.2,8.5,35,0.00,,SCT250,0.00,VWS V14.01,2013-01-10 20:57:00,
2013-01-10 16:02:00,44.3,18.2,30.35,NNE,13,5.7,7.2,35,0.00,,SCT250,0.00,VWS V14.01,2013-01-10 21:02:00,
2013-01-10 16:07:00,44.0,18.0,30.36,North,357,3.9,5.9,35,0.00,,SCT250,0.00,VWS V14.01,2013-01-10 21:07:00,
2013-01-10 16:12:00,43.8,18.2,30.35,NNE,28,4.4,4.4,35,0.00,,SCT250,0.00,VWS V14.01,2013-01-10 21:12:00,
2013-01-10 16:18:00,43.5,18.2,30.36,ENE,76,6.7,7.7,36,0.00,,SCT250,0.00,VWS V14.01,2013-01-10 21:18:00,
2013-01-10 16:23:00,43.3,18.3,30.36,NNE,17,4.7,4.7,36,0.00,,SCT250,0.00,VWS V14.01,2013-01-10 21:23:00,
2013-01-10 16:29:00,42.9,18.2,30.36,NNE,15,5.7,6.1,37,0.00,,SCT250,0.00,VWS V14.01,2013-01-10 21:29:00,
2013-01-10 16:34:00,42.7,18.3,30.36,NNE,25,5.0,5.5,37,0.00,,SCT250,0.00,VWS V14.01,2013-01-10 21:34:00,
2013-01-10 16:39:00,42.6,18.2,30.37,North,354,3.6,5.3,37,0.00,,SCT250,0.00,VWS V14.01,2013-01-10 21:39:00,
2013-01-10 16:44:00,42.3,18.3,30.37,North,349,3.4,5.1,38,0.00,,SCT250,0.00,VWS V14.01,2013-01-10 21:44:00,
2013-01-10 16:50:00,41.9,18.6,30.37,NNW,342,1.9,5.2,39,0.00,,SCT250,0.00,VWS V14.01,2013-01-10 21:50:00,
2013-01-10 16:55:00,41.6,18.9,30.37,NNW,336,1.5,5.2,40,0.00,,SCT250,0.00,VWS V14.01,2013-01-10 21:55:00,
2013-01-10 17:00:00,41.3,19.2,30.37,SW,229,1.5,1.5,41,0.00,,SCT250,0.00,VWS V14.01,2013-01-10 22:00:00,
2013-01-10 17:05:00,41.0,19.4,30.38,NW,326,1.5,1.5,41,0.00,,SCT250,0.00,VWS V14.01,2013-01-10 22:05:00,
2013-01-10 17:11:00,40.7,19.5,30.39,ENE,63,4.7,6.4,42,0.00,,SCT250,0.00,VWS V14.01,2013-01-10 22:11:00,
2013-01-10 17:16:00,40.5,19.6,30.39,NNE,24,1.5,3.1,43,0.00,,SCT250,0.00,VWS V14.01,2013-01-10 22:16:00,
2013-01-10 17:21:00,40.3,19.6,30.39,North,6,3.3,6.0,43,0.00,,SCT250,0.00,VWS V14.01,2013-01-10 22:21:00,
2013-01-10 17:26:00,40.1,19.7,30.39,WNW,300,4.0,5.6,44,0.00,,SCT250,0.00,VWS V14.01,2013-01-10 22:26:00,
2013-01-10 17:31:00,40.2,19.7,30.38,NE,44,4.4,5.7,43,0.00,,SCT250,0.00,VWS V14.01,2013-01-10 22:31:00,
2013-01-10 17:36:00,40.5,19.5,30.38,ENE,62,3.6,8.2,42,0.00,,SCT250,0.00,VWS V14.01,2013-01-10 22:36:00,
2013-01-10 17:41:00,40.8,19.5,30.39,North,8,4.9,5.0,42,0.00,,SCT250,0.00,VWS V14.01,2013-01-10 22:41:00,
2013-01-10 17:46:00,40.7,19.4,30.39,North,356,3.8,5.4,42,0.00,,SCT250,0.00,VWS V14.01,2013-01-10 22:46:00,
2013-01-10 17:51:00,40.6,19.3,30.39,NE,46,2.9,3.4,42,0.00,,SCT250,0.00,VWS V14.01,2013-01-10 22:51:00,
2013-01-10 17:57:00,40.7,19.3,30.40,NNE,17,5.4,5.4,42,0.00,,SCT250,0.00,VWS V14.01,2013-01-10 22:57:00,
2013-01-10 18:02:00,40.5,19.3,30.39,NNW,342,4.3,5.5,42,0.00,,CLR,0.00,VWS V14.01,2013-01-10 23:02:00,
2013-01-10 18:08:00,40.2,19.1,30.38,North,354,4.7,4.7,42,0.00,,CLR,0.00,VWS V14.01,2013-01-10 23:08:00,
2013-01-10 18:13:00,39.9,19.7,30.39,East,94,3.6,5.9,44,0.00,,CLR,0.00,VWS V14.01,2013-01-10 23:13:00,
2013-01-10 18:18:00,39.6,19.8,30.40,SSE,153,3.9,4.7,44,0.00,,CLR,0.00,VWS V14.01,2013-01-10 23:18:00,
2013-01-10 18:23:00,39.4,19.7,30.40,NE,38,1.5,3.3,45,0.00,,CLR,0.00,VWS V14.01,2013-01-10 23:23:00,
2013-01-10 18:28:00,39.3,19.8,30.40,NNE,21,3.7,5.5,45,0.00,,CLR,0.00,VWS V14.01,2013-01-10 23:28:00,
2013-01-10 18:33:00,39.2,19.9,30.41,WNW,292,3.5,4.5,45,0.00,,CLR,0.00,VWS V14.01,2013-01-10 23:33:00,
2013-01-10 18:38:00,39.2,20.1,30.41,NW,304,1.5,1.5,46,0.00,,CLR,0.00,VWS V14.01,2013-01-10 23:38:00,
2013-01-10 18:44:00,38.8,20.2,30.40,NW,304,1.5,1.5,47,0.00,,CLR,0.00,VWS V14.01,2013-01-10 23:44:00,
2013-01-10 18:49:00,38.7,20.4,30.40,NW,304,1.5,1.5,47,0.00,,CLR,0.00,VWS V14.01,2013-01-10 23:49:00,
2013-01-10 18:55:00,38.7,20.3,30.41,SSE,150,4.2,5.6,47,0.00,,CLR,0.00,VWS V14.01,2013-01-10 23:55:00,
2013-01-10 19:01:00,38.5,20.6,30.42,East,83,2.9,4.4,48,0.00,,CLR,0.00,VWS V14.01,2013-01-11 00:01:00,
2013-01-10 19:06:00,38.3,20.5,30.42,North,6,5.1,5.8,48,0.00,,CLR,0.00,VWS V14.01,2013-01-11 00:06:00,
2013-01-10 19:11:00,38.1,20.4,30.41,North,354,3.2,6.3,48,0.00,,CLR,0.00,VWS V14.01,2013-01-11 00:11:00,
2013-01-10 19:16:00,38.1,20.7,30.41,NNE,13,1.5,1.5,49,0.00,,CLR,0.00,VWS V14.01,2013-01-11 00:16:00,
2013-01-10 19:22:00,38.1,20.9,30.42,West,274,1.5,2.1,50,0.00,,CLR,0.00,VWS V14.01,2013-01-11 00:22:00,
2013-01-10 19:27:00,37.9,20.8,30.42,NNE,15,4.7,5.0,50,0.00,,CLR,0.00,VWS V14.01,2013-01-11 00:27:00,
2013-01-10 19:32:00,37.8,20.8,30.41,NNE,28,4.2,5.6,50,0.00,,CLR,0.00,VWS V14.01,2013-01-11 00:32:00,
2013-01-10 19:37:00,37.8,20.9,30.42,NNE,13,5.2,5.2,50,0.00,,CLR,0.00,VWS V14.01,2013-01-11 00:37:00,
2013-01-10 19:42:00,38.0,21.0,30.42,North,354,5.9,9.3,50,0.00,,CLR,0.00,VWS V14.01,2013-01-11 00:42:00,
2013-01-10 19:47:00,38.0,21.0,30.44,NNE,30,4.3,8.0,50,0.00,,CLR,0.00,VWS V14.01,2013-01-11 00:47:00,
2013-01-10 19:52:00,38.1,21.0,30.44,NE,49,6.3,7.2,50,0.00,,CLR,0.00,VWS V14.01,2013-01-11 00:52:00,
2013-01-10 19:58:00,38.2,21.1,30.44,North,8,5.5,9.1,50,0.00,,CLR,0.00,VWS V14.01,2013-01-11 00:58:00,
2013-01-10 20:04:00,38.2,21.0,30.44,NNE,27,5.5,9.5,50,0.00,,CLR,0.00,VWS V14.01,2013-01-11 01:04:00,
2013-01-10 20:10:00,38.3,20.9,30.44,NE,41,5.0,9.1,49,0.00,,CLR,0.00,VWS V14.01,2013-01-11 01:10:00,
2013-01-10 20:15:00,38.5,21.0,30.44,North,354,4.6,6.5,49,0.00,,CLR,0.00,VWS V14.01,2013-01-11 01:15:00,
2013-01-10 20:21:00,38.2,20.7,30.45,NE,38,3.1,5.3,49,0.00,,CLR,0.00,VWS V14.01,2013-01-11 01:21:00,
2013-01-10 20:27:00,38.1,20.8,30.45,North,0,1.5,3.1,49,0.00,,CLR,0.00,VWS V14.01,2013-01-11 01:27:00,
2013-01-10 20:32:00,37.8,20.8,30.45,NNE,22,3.3,4.0,50,0.00,,CLR,0.00,VWS V14.01,2013-01-11 01:32:00,
2013-01-10 20:37:00,37.7,20.9,30.45,NNE,24,4.0,4.0,50,0.00,,CLR,0.00,VWS V14.01,2013-01-11 01:37:00,
2013-01-10 20:43:00,37.4,20.8,30.46,North,350,1.5,1.5,51,0.00,,CLR,0.00,VWS V14.01,2013-01-11 01:43:00,
2013-01-10 20:48:00,37.3,20.9,30.46,NNW,328,2.7,4.0,51,0.00,,CLR,0.00,VWS V14.01,2013-01-11 01:48:00,
2013-01-10 20:53:00,37.0,21.0,30.47,North,353,1.5,3.9,52,0.00,,CLR,0.00,VWS V14.01,2013-01-11 01:53:00,
2013-01-10 20:59:00,36.7,21.1,30.46,North,359,1.5,1.5,53,0.00,,CLR,0.00,VWS V14.01,2013-01-11 01:59:00,
2013-01-10 21:05:00,36.5,21.3,30.46,NNW,339,1.5,1.5,54,0.00,,CLR,0.00,VWS V14.01,2013-01-11 02:05:00,
2013-01-10 21:10:00,36.3,21.4,30.47,NNW,339,1.5,1.5,54,0.00,,CLR,0.00,VWS V14.01,2013-01-11 02:10:00,
2013-01-10 21:16:00,36.1,21.5,30.46,NNW,339,1.5,1.5,55,0.00,,CLR,0.00,VWS V14.01,2013-01-11 02:16:00,
2013-01-10 21:22:00,35.9,21.6,30.46,NNW,339,1.5,1.5,56,0.00,,CLR,0.00,VWS V14.01,2013-01-11 02:22:00,
2013-01-10 21:27:00,35.6,21.7,30.47,NNW,339,1.5,1.5,56,0.00,,CLR,0.00,VWS V14.01,2013-01-11 02:27:00,
2013-01-10 21:33:00,35.4,21.8,30.47,NNW,339,1.5,1.5,57,0.00,,CLR,0.00,VWS V14.01,2013-01-11 02:33:00,
2013-01-10 21:39:00,35.3,22.0,30.47,North,350,1.5,2.9,58,0.00,,CLR,0.00,VWS V14.01,2013-01-11 02:39:00,
2013-01-10 21:44:00,35.1,22.1,30.47,North,350,1.5,1.5,59,0.00,,CLR,0.00,VWS V14.01,2013-01-11 02:44:00,
2013-01-10 21:50:00,35.0,22.3,30.48,North,350,1.5,1.5,60,0.00,,CLR,0.00,VWS V14.01,2013-01-11 02:50:00,
2013-01-10 21:56:00,34.9,22.4,30.48,North,350,1.5,1.5,60,0.00,,CLR,0.00,VWS V14.01,2013-01-11 02:56:00,
2013-01-10 22:01:00,34.9,22.6,30.48,North,350,1.5,1.5,60,0.00,,CLR,0.00,VWS V14.01,2013-01-11 03:01:00,
2013-01-10 22:07:00,34.6,22.6,30.48,North,350,1.5,1.5,61,0.00,,CLR,0.00,VWS V14.01,2013-01-11 03:07:00,
2013-01-10 22:12:00,34.6,22.7,30.48,North,350,1.5,1.5,61,0.00,,CLR,0.00,VWS V14.01,2013-01-11 03:12:00,
2013-01-10 22:18:00,34.6,22.8,30.49,North,350,1.5,1.5,62,0.00,,CLR,0.00,VWS V14.01,2013-01-11 03:18:00,
2013-01-10 22:24:00,34.3,22.6,30.48,North,350,1.5,1.5,62,0.00,,CLR,0.00,VWS V14.01,2013-01-11 03:24:00,
2013-01-10 22:30:00,34.3,22.8,30.47,North,1,1.5,1.5,62,0.00,,CLR,0.00,VWS V14.01,2013-01-11 03:30:00,
2013-01-10 22:35:00,34.2,22.9,30.48,North,1,1.5,1.5,63,0.00,,CLR,0.00,VWS V14.01,2013-01-11 03:35:00,
2013-01-10 22:41:00,34.0,23.0,30.46,North,1,1.5,1.5,64,0.00,,CLR,0.00,VWS V14.01,2013-01-11 03:41:00,
2013-01-10 22:46:00,34.1,23.1,30.47,North,1,1.5,1.5,64,0.00,,CLR,0.00,VWS V14.01,2013-01-11 03:46:00,
2013-01-10 22:52:00,34.0,23.2,30.47,North,1,1.5,1.5,64,0.00,,CLR,0.00,VWS V14.01,2013-01-11 03:52:00,
2013-01-10 22:58:00,33.9,23.2,30.47,WNW,283,1.5,1.5,64,0.00,,CLR,0.00,VWS V14.01,2013-01-11 03:58:00,
2013-01-10 23:03:00,33.7,23.1,30.47,WNW,283,1.5,1.5,65,0.00,,CLR,0.00,VWS V14.01,2013-01-11 04:03:00,
2013-01-10 23:09:00,33.7,23.3,30.48,NE,49,2.2,4.2,65,0.00,,CLR,0.00,VWS V14.01,2013-01-11 04:09:00,
2013-01-10 23:15:00,33.7,23.5,30.48,East,83,1.5,1.5,66,0.00,,CLR,0.00,VWS V14.01,2013-01-11 04:15:00,
2013-01-10 23:20:00,33.6,23.3,30.48,East,83,1.5,1.5,66,0.00,,CLR,0.00,VWS V14.01,2013-01-11 04:20:00,
2013-01-10 23:26:00,33.8,23.4,30.48,NNE,21,1.5,1.5,65,0.00,,CLR,0.00,VWS V14.01,2013-01-11 04:26:00,
2013-01-10 23:32:00,33.9,23.5,30.47,NE,42,3.2,4.4,65,0.00,,CLR,0.00,VWS V14.01,2013-01-11 04:32:00,
2013-01-10 23:37:00,34.0,23.5,30.47,NNE,27,1.5,1.5,65,0.00,,CLR,0.00,VWS V14.01,2013-01-11 04:37:00,
2013-01-10 23:43:00,34.1,23.5,30.47,NNE,27,1.5,1.5,65,0.00,,CLR,0.00,VWS V14.01,2013-01-11 04:43:00,
2013-01-10 23:49:00,33.9,23.5,30.47,NNE,27,1.5,1.5,65,0.00,,CLR,0.00,VWS V14.01,2013-01-11 04:49:00,
2013-01-10 23:54:00,33.8,23.5,30.47,NNE,27,1.5,1.5,66,0.00,,CLR,0.00,VWS V14.01,2013-01-11 04:54:00,